Regional Weather Roundup
Issued by NWS

Home | Current Version | Previous Version | Text Only | Print | Product List | Glossary Off
Versions: 1 2 3 4 5 6 7 8 9 10 11 12 13 14 15 16 17 18 19 20 21 22 23 24 25 26 27 28 29 30 31 32 33 34 35 36 37 38 39 40 41 42 43 44 45 46 47 48 49 50

000
ASUS43 KLMK 192002
RWRKY
KENTUCKY REGIONAL WEATHER ROUNDUP
NATIONAL WEATHER SERVICE LOUISVILLE KY
300 PM EST SUN FEB 19 2017

NOTE "FAIR" INDICATES FEW OR NO CLOUDS BELOW 12,000 FEET
WITH NO SIGNIFICANT WEATHER AND/OR OBSTRUCTIONS TO VISIBILITY.

KYZ001>023-026-027-061>063-070>075-192100-
WESTERN AND SOUTH CENTRAL KENTUCKY

CITY           SKY/WX    TMP DP  RH WIND       PRES   REMARKS
PADUCAH        PTSUNNY   60  53  77 VRB5      30.09F
HENDERSON      CLOUDY    55  48  76 CALM      30.10F
OWENSBORO      CLOUDY    55  50  83 S5        30.12S HAZE
HOPKINSVILLE   SUNNY     69  54  59 CALM      30.08F
BOWLING GREEN  MOSUNNY   65  52  62 S8        30.11S
GLASGOW        NOT AVBL
$$

KYZ024-025-028>034-038-045-046-053-192100-
NORTH CENTRAL KENTUCKY

CITY           SKY/WX    TMP DP  RH WIND       PRES   REMARKS
LOUISVILLE/SDF CLOUDY    59  49  69 VRB3      30.10S
LOUISVILLE/LOU CLOUDY    58  48  69 VRB3      30.11S
FORT KNOX      CLOUDY    56  51  82 SW5       30.09S
$$

KYZ035>037-039>044-047>052-055>060-089>105-192100-
NORTHEAST KENTUCKY

CITY           SKY/WX    TMP DP  RH WIND       PRES   REMARKS
LEXINGTON      CLOUDY    56  49  77 N5        30.11S
COVINGTON      MOSUNNY   58  47  66 SW9       30.09S
FRANKFORT      CLOUDY    55  47  74 NW3       30.10S
$$

KYZ054-064>069-076>088-106>120-192100-
SOUTHEAST KENTUCKY

CITY           SKY/WX    TMP DP  RH WIND       PRES   REMARKS
JACKSON        MOSUNNY   60  45  57 VRB5      30.11R
LONDON         SUNNY     61  44  53 S6        30.10F
SOMERSET       SUNNY     63  45  51 CALM      30.11S
MIDDLESBORO    SUNNY     64  47  55 E3        30.11S
MONTICELLO     CLEAR     65  47  52 VRB6      30.11S
$$




USA.gov is the U.S. government's official web portal to all federal, state and local government web resources and services.